Simultaneous Nadir Overpasses (SNOs) Predictions

Prediction of SNOs between METOP-C and LANDSAT-8 Satellite Orbit:

Table of predicted SNOs for the next 14.0 days since TLE Epoch: 12/7/2019
Index Date (METOP-C) Time (METOP-C) Lat,Lon (METOP-C) SZA (METOP-C ) Date (LANDSAT-8) Time (LANDSAT-8) Lat,Lon (LANDSAT-8) SZA (LANDSAT-8 ) Distance(km) Time Diff (sec)
1 12/09/2019 20:36:16 81.16, -88.77 106.15 12/09/2019 20:36:35 81.16, -88.66 106.17 2.01 19
2 12/09/2019 21:26:54 -81.19, 79.36 73.75 12/09/2019 21:26:01 -81.18, 79.31 73.78 0.92 53
3 12/12/2019 16:10:37 81.16, -22.39 106.35 12/12/2019 16:10:50 81.16, -22.26 106.37 2.22 13
4 12/12/2019 17:01:15 -81.19, 145.76 73.55 12/12/2019 17:00:16 -81.18, 145.73 73.58 0.72 59
5 12/15/2019 11:44:57 81.17, 44.37 106.54 12/15/2019 11:45:04 81.18, 44.47 106.55 1.90 7
6 12/15/2019 12:35:35 -81.20,-147.45 73.36 12/15/2019 12:34:30 -81.20,-147.51 73.40 1.02 65
7 12/18/2019 07:19:17 81.17, 110.74 106.61 12/18/2019 07:19:18 81.17, 110.81 106.62 1.11 1
8 12/18/2019 08:09:55 -81.20, -81.05 73.28 12/18/2019 08:08:44 -81.20, -81.15 73.33 1.77 71
9 12/21/2019 02:02:59 -81.14, 8.98 73.47 12/21/2019 02:04:08 -81.14, 9.14 73.43 2.77 69




NCC Satellite Simultaneous Nadir Overpasses (SNOs) Prediction Service
